When you browse on this site, cookies collect data to enhance your experience and personalize the content and advertising you see.
Visit our Privacy Policy to learn more. By continuing to use the site, you agree to this use of cookies and data.
  • en France
  • Liste des pays
  • À 7 jours
  • Température de l'eau
  • Carte météo
  • Widgets météo
  • user-avatar
    Se connecter

    Météo par heure à Abomey

    Ce jour, 26 Février, Mercredi

    Heure Température Précipitation Vent Pression Humidité
    00:00 +25°C° 0 mm 2 m/s 738 mmHg 87%
    01:00 +24°C° 0 mm 1 m/s 737 mmHg 89%
    02:00 +24°C° 0 mm 1 m/s 737 mmHg 91%
    03:00 +22°C° 0 mm 0 m/s 736 mmHg 93%
    04:00 +21°C° 0 mm 0 m/s 736 mmHg 94%
    05:00 +21°C° 0 mm 0 m/s 737 mmHg 94%
    06:00 +21°C° 0 mm 0 m/s 737 mmHg 94%
    07:00 +25°C° 0 mm 0 m/s 738 mmHg 80%
    08:00 +30°C° 0 mm 1 m/s 738 mmHg 65%
    09:00 +33°C° 0 mm 1 m/s 739 mmHg 51%
    10:00 +36°C° 0 mm 1 m/s 738 mmHg 41%
    11:00 +40°C° 0 mm 1 m/s 738 mmHg 30%
    12:00 +43°C° 0 mm 1 m/s 738 mmHg 20%
    13:00 +43°C° 0 mm 1 m/s 737 mmHg 19%
    14:00 +43°C° 0 mm 1 m/s 736 mmHg 18%
    15:00 +43°C° 0 mm 1 m/s 735 mmHg 17%
    16:00 +40°C° 0 mm 2 m/s 735 mmHg 28%
    17:00 +37°C° 0 mm 4 m/s 735 mmHg 38%
    18:00 +33°C° 0 mm 5 m/s 735 mmHg 48%
    19:00 +32°C° 0 mm 4 m/s 736 mmHg 58%
    20:00 +29°C° 0 mm 4 m/s 737 mmHg 68%
    21:00 +28°C° 0 mm 3 m/s 737 mmHg 77%
    22:00 +27°C° 0 mm 3 m/s 737 mmHg 82%
    23:00 +26°C° 0 mm 2 m/s 737 mmHg 86%

    Demain, 27 Février, Jeudi

    Heure Température Précipitation Vent Pression Humidité
    00:00 +26°C° 0 mm 1 m/s 737 mmHg 91%
    01:00 +26°C° 0 mm 2 m/s 737 mmHg 92%
    02:00 +26°C° 0 mm 2 m/s 737 mmHg 94%
    03:00 +25°C° 0 mm 2 m/s 736 mmHg 95%
    04:00 +25°C° 0 mm 2 m/s 736 mmHg 96%
    05:00 +25°C° 0 mm 2 m/s 737 mmHg 96%
    06:00 +25°C° 0 mm 2 m/s 737 mmHg 97%
    07:00 +27°C° 0 mm 2 m/s 738 mmHg 86%
    08:00 +29°C° 0 mm 1 m/s 739 mmHg 74%
    09:00 +31°C° 0 mm 1 m/s 739 mmHg 63%
    10:00 +34°C° 0 mm 1 m/s 739 mmHg 53%
    11:00 +37°C° 0 mm 1 m/s 739 mmHg 42%
    12:00 +41°C° 0 mm 2 m/s 738 mmHg 32%
    13:00 +40°C° 0 mm 2 m/s 738 mmHg 34%
    14:00 +38°C° 0 mm 3 m/s 737 mmHg 36%
    15:00 +37°C° 0 mm 4 m/s 736 mmHg 39%
    16:00 +36°C° 0.1 mm 4 m/s 736 mmHg 42%
    17:00 +35°C° 0.1 mm 4 m/s 736 mmHg 46%
    18:00 +34°C° 0.1 mm 4 m/s 736 mmHg 50%
    19:00 +32°C° 0 mm 4 m/s 737 mmHg 59%
    20:00 +30°C° 0 mm 3 m/s 737 mmHg 68%
    21:00 +28°C° 0 mm 3 m/s 738 mmHg 77%
    22:00 +27°C° 0 mm 3 m/s 738 mmHg 81%
    23:00 +27°C° 0 mm 3 m/s 738 mmHg 86%

    Après-demain, 28 Février, Vendredi

    Heure Température Précipitation Vent Pression Humidité
    00:00 +26°C° 0 mm 2 m/s 738 mmHg 90%
    01:00 +26°C° 0 mm 2 m/s 737 mmHg 91%
    02:00 +26°C° 0 mm 2 m/s 737 mmHg 93%
    03:00 +26°C° 0 mm 3 m/s 737 mmHg 94%
    04:00 +26°C° 0 mm 2 m/s 737 mmHg 94%
    05:00 +25°C° 0 mm 2 m/s 737 mmHg 95%
    06:00 +25°C° 0 mm 2 m/s 738 mmHg 95%
    07:00 +28°C° 0 mm 2 m/s 738 mmHg 82%
    08:00 +30°C° 0 mm 2 m/s 739 mmHg 70%
    09:00 +33°C° 0 mm 3 m/s 740 mmHg 57%
    10:00 +37°C° 0 mm 2 m/s 739 mmHg 47%
    11:00 +40°C° 0 mm 1 m/s 739 mmHg 37%
    12:00 +43°C° 0 mm 1 m/s 738 mmHg 27%
    13:00 +42°C° 0 mm 1 m/s 738 mmHg 27%
    14:00 +41°C° 0 mm 1 m/s 737 mmHg 28%
    15:00 +40°C° 0 mm 1 m/s 736 mmHg 28%
    16:00 +38°C° 0.1 mm 2 m/s 736 mmHg 37%
    17:00 +36°C° 0.1 mm 3 m/s 736 mmHg 45%
    18:00 +34°C° 0.1 mm 4 m/s 737 mmHg 53%
    19:00 +33°C° 0 mm 4 m/s 737 mmHg 60%
    20:00 +30°C° 0 mm 3 m/s 738 mmHg 66%
    21:00 +29°C° 0 mm 3 m/s 738 mmHg 73%
    22:00 +28°C° 0 mm 3 m/s 738 mmHg 77%
    23:00 +28°C° 0 mm 3 m/s 738 mmHg 80%

    29 Février, Samedi

    Heure Température Précipitation Vent Pression Humidité
    00:00 +27°C° 0 mm 3 m/s 738 mmHg 84%
    01:00 +27°C° 0 mm 3 m/s 737 mmHg 84%
    02:00 +27°C° 0 mm 3 m/s 737 mmHg 85%
    03:00 +27°C° 0 mm 3 m/s 737 mmHg 85%
    04:00 +27°C° 0 mm 3 m/s 737 mmHg 85%
    05:00 +27°C° 0 mm 2 m/s 737 mmHg 86%
    06:00 +27°C° 0 mm 1 m/s 737 mmHg 87%
    07:00 +29°C° 0 mm 2 m/s 738 mmHg 77%
    08:00 +31°C° 0 mm 2 m/s 738 mmHg 68%
    09:00 +34°C° 0 mm 3 m/s 739 mmHg 58%
    10:00 +37°C° 0 mm 2 m/s 739 mmHg 47%
    11:00 +40°C° 0 mm 2 m/s 738 mmHg 35%
    12:00 +43°C° 0 mm 1 m/s 738 mmHg 23%
    13:00 +43°C° 0 mm 2 m/s 737 mmHg 21%
    14:00 +43°C° 0 mm 2 m/s 736 mmHg 19%
    15:00 +45°C° 0 mm 2 m/s 735 mmHg 17%
    16:00 +40°C° 0 mm 3 m/s 735 mmHg 32%
    17:00 +36°C° 0 mm 4 m/s 735 mmHg 47%
    18:00 +33°C° 0 mm 5 m/s 735 mmHg 62%
    19:00 +32°C° 0 mm 5 m/s 736 mmHg 68%
    20:00 +29°C° 0 mm 5 m/s 737 mmHg 74%
    21:00 +28°C° 0 mm 4 m/s 737 mmHg 80%
    22:00 +28°C° 0 mm 4 m/s 737 mmHg 83%
    23:00 +27°C° 0 mm 3 m/s 737 mmHg 85%

    1 Mars, Dimanche

    Heure Température Précipitation Vent Pression Humidité
    00:00 +27°C° 0 mm 2 m/s 737 mmHg 88%
    01:00 +27°C° 0 mm 3 m/s 737 mmHg 87%
    02:00 +27°C° 0 mm 3 m/s 737 mmHg 86%
    03:00 +28°C° 0 mm 3 m/s 737 mmHg 85%
    04:00 +28°C° 0 mm 3 m/s 737 mmHg 82%
    05:00 +28°C° 0 mm 3 m/s 737 mmHg 79%
    06:00 +29°C° 0 mm 3 m/s 737 mmHg 76%
    07:00 +30°C° 0 mm 3 m/s 738 mmHg 71%
    08:00 +31°C° 0 mm 3 m/s 739 mmHg 67%
    09:00 +33°C° 0 mm 3 m/s 739 mmHg 62%
    10:00 +33°C° 0 mm 3 m/s 739 mmHg 60%
    11:00 +34°C° 0 mm 3 m/s 739 mmHg 59%
    12:00 +34°C° 0 mm 3 m/s 738 mmHg 57%
    13:00 +35°C° 0 mm 3 m/s 737 mmHg 53%
    14:00 +36°C° 0 mm 3 m/s 737 mmHg 49%
    15:00 +37°C° 0 mm 3 m/s 736 mmHg 44%
    16:00 +36°C° 0 mm 3 m/s 736 mmHg 47%
    17:00 +35°C° 0 mm 3 m/s 736 mmHg 50%
    18:00 +34°C° 0 mm 3 m/s 737 mmHg 53%
    19:00 +33°C° 0 mm 3 m/s 737 mmHg 59%
    20:00 +30°C° 0 mm 3 m/s 738 mmHg 65%
    21:00 +29°C° 0 mm 3 m/s 738 mmHg 70%
    22:00 +28°C° 0 mm 4 m/s 738 mmHg 73%
    23:00 +28°C° 0 mm 4 m/s 738 mmHg 75%

    2 Mars, Lundi

    Heure Température Précipitation Vent Pression Humidité
    00:00 +28°C° 0 mm 4 m/s 738 mmHg 78%
    01:00 +27°C° 0 mm 3 m/s 738 mmHg 81%
    02:00 +27°C° 0 mm 3 m/s 737 mmHg 85%
    03:00 +26°C° 0 mm 2 m/s 737 mmHg 88%
    04:00 +26°C° 0 mm 2 m/s 737 mmHg 90%
    05:00 +25°C° 0 mm 1 m/s 738 mmHg 93%
    06:00 +25°C° 0 mm 1 m/s 738 mmHg 95%
    07:00 +27°C° 0 mm 2 m/s 739 mmHg 83%
    08:00 +30°C° 0 mm 3 m/s 739 mmHg 72%
    09:00 +33°C° 0 mm 3 m/s 740 mmHg 61%
    10:00 +34°C° 0 mm 3 m/s 740 mmHg 56%
    11:00 +35°C° 0 mm 3 m/s 739 mmHg 52%
    12:00 +36°C° 0 mm 3 m/s 739 mmHg 48%
    13:00 +36°C° 0 mm 3 m/s 738 mmHg 46%
    14:00 +37°C° 0 mm 3 m/s 737 mmHg 45%
    15:00 +37°C° 0 mm 3 m/s 736 mmHg 44%
    16:00 +36°C° 0 mm 3 m/s 737 mmHg 47%
    17:00 +35°C° 0 mm 4 m/s 737 mmHg 49%
    18:00 +34°C° 0 mm 4 m/s 737 mmHg 52%
    19:00 +32°C° 0 mm 4 m/s 738 mmHg 59%
    20:00 +30°C° 0 mm 3 m/s 738 mmHg 67%
    21:00 +28°C° 0 mm 3 m/s 739 mmHg 74%
    22:00 +28°C° 0.3 mm 2 m/s 739 mmHg 78%
    23:00 +27°C° 0.3 mm 2 m/s 739 mmHg 82%
    Voir plus